Time,TemperatureF,DewpointF,PressureIn,WindDirection,WindDirectionDegrees,WindSpeedMPH,WindSpeedGustMPH,Humidity,HourlyPrecipIn,Conditions,Clouds,dailyrainin,SoftwareType,DateUTC
2013-01-16 00:00:00,27.3,20.5,30.12,NNW,334,0.0,0.0,75,0.00,,,0.00,VWS V14.01,2013-01-16 05:00:00,
2013-01-16 00:05:00,27.3,20.5,30.15,NNW,334,0.0,0.0,75,0.00,,,0.00,VWS V14.01,2013-01-16 05:05:00,
2013-01-16 00:10:00,27.3,20.5,30.15,NNW,334,0.0,0.0,75,0.00,,,0.00,VWS V14.01,2013-01-16 05:10:00,
2013-01-16 00:15:00,27.5,20.4,30.15,NNW,334,0.0,0.0,74,0.00,,,0.00,VWS V14.01,2013-01-16 05:15:00,
2013-01-16 00:20:00,27.5,20.4,30.12,East,88,2.2,4.9,74,0.00,,,0.00,VWS V14.01,2013-01-16 05:20:00,
2013-01-16 00:25:00,27.5,20.4,30.12,East,90,3.6,4.9,74,0.00,,,0.00,VWS V14.01,2013-01-16 05:25:00,
2013-01-16 00:35:00,27.5,20.4,30.12,East,99,2.7,4.9,74,0.00,,,0.00,VWS V14.01,2013-01-16 05:35:00,
2013-01-16 00:45:00,27.5,20.4,30.12,East,96,2.2,5.4,74,0.00,,,0.00,VWS V14.01,2013-01-16 05:45:00,
2013-01-16 00:55:00,27.5,20.4,30.12,East,87,2.2,5.4,74,0.00,,,0.00,VWS V14.01,2013-01-16 05:55:00,
2013-01-16 01:00:00,27.5,20.4,30.12,ESE,109,2.2,4.0,74,0.00,,,0.00,VWS V14.01,2013-01-16 06:00:00,
2013-01-16 01:10:00,27.5,20.4,30.12,ESE,109,3.1,3.6,74,0.00,,,0.00,VWS V14.01,2013-01-16 06:10:00,
2013-01-16 01:20:00,27.5,20.4,30.12,ESE,115,3.6,4.9,74,0.00,,,0.00,VWS V14.01,2013-01-16 06:20:00,
2013-01-16 01:30:00,27.5,20.4,30.09,ESE,115,3.1,4.9,74,0.00,,,0.00,VWS V14.01,2013-01-16 06:30:00,
2013-01-16 01:40:00,27.5,20.4,30.09,ESE,115,2.7,3.6,74,0.00,,,0.00,VWS V14.01,2013-01-16 06:40:00,
2013-01-16 01:45:00,27.5,20.4,30.09,ESE,115,2.7,5.4,74,0.00,,,0.00,VWS V14.01,2013-01-16 06:45:00,
2013-01-16 01:55:00,27.5,20.4,30.09,ESE,107,0.0,5.4,74,0.00,,,0.00,VWS V14.01,2013-01-16 06:55:00,
2013-01-16 02:00:00,27.5,20.4,30.09,ESE,108,3.6,5.4,74,0.00,,,0.00,VWS V14.01,2013-01-16 07:00:00,
2013-01-16 02:05:00,27.5,20.4,30.09,ESE,103,4.0,7.6,74,0.00,,,0.00,VWS V14.01,2013-01-16 07:05:00,
2013-01-16 02:15:00,27.5,20.4,30.06,ESE,111,2.7,7.6,74,0.00,,,0.00,VWS V14.01,2013-01-16 07:15:00,
2013-01-16 02:20:00,27.5,20.4,30.06,SSE,157,4.0,8.1,74,0.00,,,0.00,VWS V14.01,2013-01-16 07:20:00,
2013-01-16 02:30:00,27.5,20.4,30.06,ESE,117,2.2,8.1,74,0.00,,,0.00,VWS V14.01,2013-01-16 07:30:00,
2013-01-16 02:40:00,27.5,20.4,30.06,ESE,108,4.0,5.4,74,0.00,,,0.00,VWS V14.01,2013-01-16 07:40:00,
2013-01-16 02:45:00,27.5,20.4,30.06,ESE,110,4.0,5.4,74,0.00,,,0.00,VWS V14.01,2013-01-16 07:45:00,
2013-01-16 02:55:00,27.5,20.4,30.06,ESE,108,3.6,7.2,74,0.00,,,0.00,VWS V14.01,2013-01-16 07:55:00,
2013-01-16 03:05:00,27.5,20.4,30.06,East,98,2.7,7.2,74,0.00,,,0.00,VWS V14.01,2013-01-16 08:05:00,
2013-01-16 03:15:00,27.5,20.4,30.06,SE,126,3.1,4.0,74,0.00,,,0.00,VWS V14.01,2013-01-16 08:15:00,
2013-01-16 03:25:00,27.5,20.4,30.06,SSW,193,0.0,4.9,74,0.00,,,0.00,VWS V14.01,2013-01-16 08:25:00,
2013-01-16 03:30:00,27.5,20.4,30.06,SSE,151,2.2,4.9,74,0.00,,,0.00,VWS V14.01,2013-01-16 08:30:00,
2013-01-16 03:40:00,27.5,20.4,30.03,SE,140,0.0,4.0,74,0.00,,,0.00,VWS V14.01,2013-01-16 08:40:00,
2013-01-16 03:50:00,27.5,20.4,30.03,SE,138,2.7,4.0,74,0.00,,,0.00,VWS V14.01,2013-01-16 08:50:00,
2013-01-16 04:00:00,27.5,20.4,30.03,SSE,160,2.7,4.9,74,0.00,,,0.00,VWS V14.01,2013-01-16 09:00:00,
2013-01-16 04:05:00,27.5,20.4,30.03,South,176,0.0,4.9,74,0.00,,,0.00,VWS V14.01,2013-01-16 09:05:00,
2013-01-16 04:15:00,28.9,19.1,30.03,SSE,167,3.6,4.0,66,0.00,,,0.00,VWS V14.01,2013-01-16 09:15:00,
2013-01-16 04:20:00,28.9,19.1,30.03,SE,130,3.6,4.9,66,0.00,,,0.00,VWS V14.01,2013-01-16 09:20:00,
2013-01-16 04:25:00,28.9,19.1,30.00,ESE,122,3.6,6.3,66,0.00,,,0.00,VWS V14.01,2013-01-16 09:25:00,
2013-01-16 04:35:00,28.9,19.1,30.00,SE,145,3.1,6.3,66,0.00,,,0.00,VWS V14.01,2013-01-16 09:35:00,
2013-01-16 04:40:00,28.9,19.1,30.00,SSE,149,3.6,5.4,66,0.00,,,0.00,VWS V14.01,2013-01-16 09:40:00,
2013-01-16 04:50:00,28.9,19.5,30.00,SE,130,2.7,5.4,67,0.00,,,0.00,VWS V14.01,2013-01-16 09:50:00,
2013-01-16 05:00:00,28.9,19.5,30.00,SE,141,4.0,5.8,67,0.00,,,0.00,VWS V14.01,2013-01-16 10:00:00,
2013-01-16 05:05:00,28.9,19.5,30.00,SSE,164,2.7,5.8,67,0.00,,,0.00,VWS V14.01,2013-01-16 10:05:00,
2013-01-16 05:15:00,28.9,19.5,30.00,South,173,2.2,6.3,67,0.00,,,0.00,VWS V14.01,2013-01-16 10:15:00,
2013-01-16 05:25:00,28.9,19.5,29.97,South,185,0.0,6.3,67,0.00,,,0.00,VWS V14.01,2013-01-16 10:25:00,
2013-01-16 05:35:00,28.6,21.8,29.97,South,183,3.6,5.4,75,0.00,,,0.00,VWS V14.01,2013-01-16 10:35:00,
2013-01-16 05:45:00,28.6,22.4,29.97,South,190,2.7,6.3,77,0.00,,,0.00,VWS V14.01,2013-01-16 10:45:00,
2013-01-16 05:50:00,28.6,22.4,29.97,SSE,160,4.5,6.3,77,0.00,,,0.00,VWS V14.01,2013-01-16 10:50:00,
2013-01-16 06:00:00,28.6,23.0,29.97,South,191,3.1,6.3,79,0.00,,,0.00,VWS V14.01,2013-01-16 11:00:00,
2013-01-16 06:10:00,28.4,23.7,29.97,South,170,2.7,6.3,82,0.00,,,0.00,VWS V14.01,2013-01-16 11:10:00,
2013-01-16 06:15:00,28.4,23.7,29.97,SE,137,3.6,5.8,82,0.00,,,0.00,VWS V14.01,2013-01-16 11:15:00,
2013-01-16 06:25:00,28.2,24.7,29.97,South,187,3.6,5.4,86,0.00,,,0.00,VWS V14.01,2013-01-16 11:25:00,
2013-01-16 06:35:00,28.2,24.9,29.97,South,174,3.1,6.3,87,0.00,,,0.00,VWS V14.01,2013-01-16 11:35:00,
2013-01-16 06:40:00,28.2,24.9,29.97,South,189,5.8,6.7,87,0.00,,,0.00,VWS V14.01,2013-01-16 11:40:00,
2013-01-16 06:45:00,28.2,24.9,29.97,South,183,3.6,6.7,87,0.00,,,0.00,VWS V14.01,2013-01-16 11:45:00,
2013-01-16 06:50:00,28.2,24.9,29.97,South,179,4.9,6.7,87,0.00,,,0.00,VWS V14.01,2013-01-16 11:50:00,
2013-01-16 07:00:00,28.2,25.5,29.97,SSW,193,2.7,5.8,89,0.00,,,0.00,VWS V14.01,2013-01-16 12:00:00,
2013-01-16 07:10:00,28.4,26.2,29.97,South,185,4.9,5.8,91,0.00,,,0.00,VWS V14.01,2013-01-16 12:10:00,
2013-01-16 07:20:00,28.4,26.2,29.97,South,182,3.1,6.7,91,0.00,,,0.00,VWS V14.01,2013-01-16 12:20:00,
2013-01-16 07:30:00,28.4,26.2,29.97,South,173,5.4,7.6,91,0.00,,,0.00,VWS V14.01,2013-01-16 12:30:00,
2013-01-16 07:35:00,28.4,26.2,29.97,SSW,198,2.7,7.6,91,0.00,,,0.00,VWS V14.01,2013-01-16 12:35:00,
2013-01-16 07:45:00,28.4,26.2,29.94,SSE,167,3.6,8.1,91,0.00,,,0.00,VWS V14.01,2013-01-16 12:45:00,
2013-01-16 07:55:00,28.4,26.2,29.94,SSW,193,3.6,7.6,91,0.00,,,0.00,VWS V14.01,2013-01-16 12:55:00,
2013-01-16 08:00:00,28.4,26.2,29.94,SSW,200,5.8,7.6,91,0.00,,,0.00,VWS V14.01,2013-01-16 13:00:00,
2013-01-16 08:10:00,28.4,26.2,29.94,SSW,206,8.3,8.3,91,0.00,,,0.00,VWS V14.01,2013-01-16 13:10:00,
2013-01-16 08:15:00,28.4,26.2,29.94,South,185,5.4,8.3,91,0.00,,,0.00,VWS V14.01,2013-01-16 13:15:00,
2013-01-16 08:20:00,28.4,26.2,29.94,South,181,2.2,8.3,91,0.00,,,0.00,VWS V14.01,2013-01-16 13:20:00,
2013-01-16 08:30:00,28.4,26.2,29.94,South,176,2.2,5.4,91,0.00,,,0.00,VWS V14.01,2013-01-16 13:30:00,
2013-01-16 08:35:00,28.4,26.2,29.94,South,176,2.7,4.9,91,0.00,,,0.00,VWS V14.01,2013-01-16 13:35:00,
2013-01-16 08:45:00,28.9,27.5,29.94,SSW,200,5.4,5.8,94,0.00,,,0.00,VWS V14.01,2013-01-16 13:45:00,
2013-01-16 08:55:00,29.1,27.7,29.94,SSW,203,4.9,7.6,94,0.00,,,0.00,VWS V14.01,2013-01-16 13:55:00,
2013-01-16 09:05:00,29.1,27.7,29.94,SSW,194,4.0,8.3,94,0.00,,,0.00,VWS V14.01,2013-01-16 14:05:00,
2013-01-16 09:10:00,29.1,27.7,29.94,South,185,4.0,8.3,94,0.00,,,0.00,VWS V14.01,2013-01-16 14:10:00,
2013-01-16 09:20:00,29.5,28.0,29.94,SSW,196,3.6,6.3,94,0.00,,,0.00,VWS V14.01,2013-01-16 14:20:00,
2013-01-16 09:30:00,29.5,28.0,29.94,South,180,0.0,5.4,94,0.00,,,0.00,VWS V14.01,2013-01-16 14:30:00,
2013-01-16 09:40:00,29.5,28.0,29.94,SE,132,2.7,4.9,94,0.00,,,0.00,VWS V14.01,2013-01-16 14:40:00,
2013-01-16 09:50:00,29.5,28.0,29.94,SSE,167,3.1,4.9,94,0.00,,,0.00,VWS V14.01,2013-01-16 14:50:00,
2013-01-16 09:55:00,29.5,28.0,29.91,South,191,3.1,5.8,94,0.00,,,0.00,VWS V14.01,2013-01-16 14:55:00,
2013-01-16 10:00:00,29.5,28.0,29.91,SSW,192,4.9,5.8,94,0.00,,,0.00,VWS V14.01,2013-01-16 15:00:00,
2013-01-16 10:11:00,29.5,28.0,29.91,South,171,2.7,4.9,94,0.00,,,0.00,VWS V14.01,2013-01-16 15:11:00,
2013-01-16 10:20:00,30.0,28.6,29.91,South,174,2.7,4.9,94,0.00,,,0.00,VWS V14.01,2013-01-16 15:20:00,
2013-01-16 10:30:00,30.0,28.6,29.91,SSW,198,2.2,5.4,94,0.00,,,0.00,VWS V14.01,2013-01-16 15:30:00,
2013-01-16 10:40:00,30.0,28.6,29.91,South,170,3.6,6.3,94,0.00,,,0.00,VWS V14.01,2013-01-16 15:40:00,
2013-01-16 10:50:00,30.0,28.6,29.91,South,182,3.1,5.8,94,0.00,,,0.00,VWS V14.01,2013-01-16 15:50:00,
2013-01-16 11:00:00,30.0,28.6,29.91,SE,140,5.4,5.8,94,0.00,,,0.00,VWS V14.01,2013-01-16 16:00:00,
2013-01-16 11:10:00,30.0,28.6,29.85,South,182,4.9,6.3,94,0.00,,,0.00,VWS V14.01,2013-01-16 16:10:00,
2013-01-16 11:15:00,30.0,28.6,29.85,SE,140,3.1,6.3,94,0.00,,,0.00,VWS V14.01,2013-01-16 16:15:00,
2013-01-16 11:25:00,30.0,28.6,29.85,South,180,5.4,8.1,94,0.00,,,0.00,VWS V14.01,2013-01-16 16:25:00,
2013-01-16 11:30:00,30.0,28.6,29.85,SSE,161,2.7,8.1,94,0.00,,,0.00,VWS V14.01,2013-01-16 16:30:00,
2013-01-16 11:40:00,30.0,28.6,29.83,SSE,154,5.8,6.7,94,0.00,,,0.00,VWS V14.01,2013-01-16 16:40:00,
2013-01-16 11:50:00,30.0,28.6,29.83,ESE,123,4.0,7.6,94,0.00,,,0.00,VWS V14.01,2013-01-16 16:50:00,
2013-01-16 12:00:00,30.0,28.6,29.85,SE,140,4.0,8.3,94,0.00,,,0.00,VWS V14.01,2013-01-16 17:00:00,
2013-01-16 12:10:00,30.0,28.6,29.80,SSE,155,3.1,8.1,94,0.00,,,0.00,VWS V14.01,2013-01-16 17:10:00,
2013-01-16 12:15:00,30.0,28.6,29.80,SE,140,4.9,8.7,94,0.00,,,0.00,VWS V14.01,2013-01-16 17:15:00,
2013-01-16 12:25:00,30.0,28.6,29.80,SE,146,5.8,8.7,94,0.00,,,0.00,VWS V14.01,2013-01-16 17:25:00,
2013-01-16 12:35:00,30.0,28.6,29.80,South,176,5.4,8.7,94,0.00,,,0.00,VWS V14.01,2013-01-16 17:35:00,
2013-01-16 12:40:00,30.0,28.6,29.80,South,191,5.8,8.7,94,0.00,,,0.00,VWS V14.01,2013-01-16 17:40:00,
2013-01-16 12:50:00,30.0,28.6,29.80,South,189,5.8,8.3,94,0.00,,,0.00,VWS V14.01,2013-01-16 17:50:00,
2013-01-16 13:00:00,30.0,28.6,29.80,SE,132,4.0,8.3,94,0.00,,,0.00,VWS V14.01,2013-01-16 18:00:00,
2013-01-16 13:05:00,30.0,28.6,29.80,South,191,4.9,6.3,94,0.00,,,0.00,VWS V14.01,2013-01-16 18:05:00,
2013-01-16 13:10:00,30.0,28.6,29.80,SE,137,3.6,6.3,94,0.00,,,0.00,VWS V14.01,2013-01-16 18:10:00,
2013-01-16 13:15:00,30.0,28.6,29.80,SE,136,0.0,8.7,94,0.00,,,0.00,VWS V14.01,2013-01-16 18:15:00,
2013-01-16 13:25:00,30.0,28.6,29.77,SSE,165,5.4,8.7,94,0.00,,,0.00,VWS V14.01,2013-01-16 18:25:00,
2013-01-16 13:35:00,30.0,28.6,29.80,SSW,199,3.6,9.6,94,0.00,,,0.00,VWS V14.01,2013-01-16 18:35:00,
2013-01-16 13:45:00,30.0,28.6,29.80,SSE,167,0.0,7.6,94,0.00,,,0.00,VWS V14.01,2013-01-16 18:45:00,
2013-01-16 13:50:00,30.0,28.6,29.77,SSE,161,5.8,7.6,94,0.00,,,0.00,VWS V14.01,2013-01-16 18:50:00,
2013-01-16 14:00:00,30.0,28.6,29.77,SSW,207,5.4,8.3,94,0.00,,,0.00,VWS V14.01,2013-01-16 19:00:00,
2013-01-16 14:10:00,30.0,28.6,29.77,South,187,5.8,8.7,94,0.00,,,0.00,VWS V14.01,2013-01-16 19:10:00,
2013-01-16 14:20:00,30.0,28.6,29.77,South,185,6.3,8.7,94,0.00,,,0.00,VWS V14.01,2013-01-16 19:20:00,
2013-01-16 14:25:00,30.0,28.6,29.77,SSW,196,4.9,8.1,94,0.00,,,0.00,VWS V14.01,2013-01-16 19:25:00,
2013-01-16 14:35:00,30.0,28.6,29.77,South,180,3.1,8.3,94,0.00,,,0.00,VWS V14.01,2013-01-16 19:35:00,
2013-01-16 14:40:00,30.0,28.6,29.77,SSW,205,8.7,9.2,94,0.00,,,0.00,VWS V14.01,2013-01-16 19:40:00,
2013-01-16 14:45:00,30.0,28.6,29.77,SSW,195,8.1,12.3,94,0.00,,,0.00,VWS V14.01,2013-01-16 19:45:00,
2013-01-16 14:55:00,32.7,28.5,29.77,SSW,192,5.8,12.3,84,0.00,,,0.00,VWS V14.01,2013-01-16 19:55:00,
2013-01-16 15:00:00,32.7,28.5,29.77,SSW,207,3.1,10.5,84,0.00,,,0.00,VWS V14.01,2013-01-16 20:00:00,
2013-01-16 15:10:00,32.7,28.5,29.77,South,179,2.7,10.5,84,0.00,,,0.00,VWS V14.01,2013-01-16 20:10:00,
2013-01-16 15:20:00,32.7,28.5,29.77,SSE,161,3.6,8.1,84,0.00,,,0.00,VWS V14.01,2013-01-16 20:20:00,
2013-01-16 15:25:00,32.7,28.5,29.77,SSW,201,7.6,8.1,84,0.00,,,0.00,VWS V14.01,2013-01-16 20:25:00,
2013-01-16 15:30:00,32.7,28.5,29.77,South,187,10.5,10.5,84,0.00,,,0.00,VWS V14.01,2013-01-16 20:30:00,
2013-01-16 15:35:00,32.7,28.5,29.77,South,183,4.9,10.5,84,0.00,,,0.00,VWS V14.01,2013-01-16 20:35:00,
2013-01-16 15:45:00,32.7,28.5,29.77,SSW,200,7.6,10.1,84,0.00,,,0.00,VWS V14.01,2013-01-16 20:45:00,
2013-01-16 15:55:00,32.7,28.5,29.77,South,176,4.0,10.1,84,0.00,,,0.00,VWS V14.01,2013-01-16 20:55:00,
2013-01-16 16:00:00,32.7,28.5,29.77,SSW,197,7.6,8.3,84,0.00,,,0.00,VWS V14.01,2013-01-16 21:00:00,
2013-01-16 16:10:00,32.7,28.5,29.77,SSW,213,3.1,8.3,84,0.00,,,0.00,VWS V14.01,2013-01-16 21:10:00,
2013-01-16 16:20:00,32.7,28.5,29.77,SE,133,3.1,8.3,84,0.00,,,0.00,VWS V14.01,2013-01-16 21:20:00,
2013-01-16 16:30:00,32.7,28.5,29.77,South,185,5.4,8.3,84,0.00,,,0.00,VWS V14.01,2013-01-16 21:30:00,
2013-01-16 16:40:00,32.7,28.5,29.77,ESE,123,3.6,6.3,84,0.00,,,0.00,VWS V14.01,2013-01-16 21:40:00,
2013-01-16 16:45:00,32.7,28.5,29.77,SSW,202,10.1,10.1,84,0.00,,,0.00,VWS V14.01,2013-01-16 21:45:00,
2013-01-16 16:55:00,32.7,28.5,29.77,SSW,197,5.8,10.1,84,0.00,,,0.00,VWS V14.01,2013-01-16 21:55:00,
2013-01-16 17:00:00,32.7,28.5,29.77,SSE,157,3.6,8.7,84,0.00,,,0.00,VWS V14.01,2013-01-16 22:00:00,
2013-01-16 17:10:00,32.7,28.5,29.77,South,176,11.0,12.3,84,0.00,,,0.00,VWS V14.01,2013-01-16 22:10:00,
2013-01-16 17:15:00,32.7,28.5,29.77,SSW,197,7.6,12.3,84,0.00,,,0.00,VWS V14.01,2013-01-16 22:15:00,
2013-01-16 17:20:00,32.7,28.5,29.77,South,185,4.0,12.3,84,0.00,,,0.00,VWS V14.01,2013-01-16 22:20:00,
2013-01-16 17:30:00,32.7,28.5,29.77,SSW,193,8.7,10.1,84,0.00,,,0.00,VWS V14.01,2013-01-16 22:30:00,
2013-01-16 17:40:00,32.7,28.5,29.77,SSE,147,5.4,10.5,84,0.00,,,0.00,VWS V14.01,2013-01-16 22:40:00,
2013-01-16 17:45:00,32.7,28.5,29.77,South,185,6.3,10.5,84,0.00,,,0.00,VWS V14.01,2013-01-16 22:45:00,
2013-01-16 17:50:00,31.8,29.3,29.77,South,190,5.8,8.7,90,0.00,,,0.00,VWS V14.01,2013-01-16 22:50:00,
2013-01-16 17:55:00,31.8,29.3,29.77,SSW,194,5.8,8.7,90,0.00,,,0.00,VWS V14.01,2013-01-16 22:55:00,
2013-01-16 18:05:00,31.6,29.1,29.77,South,185,6.3,8.7,90,0.00,,,0.00,VWS V14.01,2013-01-16 23:05:00,
2013-01-16 18:15:00,31.3,28.8,29.80,South,184,2.7,8.1,90,0.00,,,0.00,VWS V14.01,2013-01-16 23:15:00,
2013-01-16 18:25:00,30.9,28.4,29.80,South,190,5.8,8.1,90,0.00,,,0.00,VWS V14.01,2013-01-16 23:25:00,
2013-01-16 18:35:00,30.9,28.4,29.80,SE,145,4.0,8.1,90,0.00,,,0.00,VWS V14.01,2013-01-16 23:35:00,
2013-01-16 18:40:00,30.7,28.5,29.80,SSW,195,2.2,7.6,91,0.00,,,0.00,VWS V14.01,2013-01-16 23:40:00,
2013-01-16 18:50:00,30.7,28.5,29.80,SSE,164,4.0,7.6,91,0.00,,,0.00,VWS V14.01,2013-01-16 23:50:00,
2013-01-16 19:00:00,30.7,28.5,29.80,South,187,3.6,5.8,91,0.00,,,0.00,VWS V14.01,2013-01-17 00:00:00,
2013-01-16 19:10:00,30.7,28.5,29.80,SSE,158,3.6,8.3,91,0.00,,,0.00,VWS V14.01,2013-01-17 00:10:00,
2013-01-16 19:15:00,30.7,28.5,29.80,SSE,156,4.0,8.3,91,0.00,,,0.00,VWS V14.01,2013-01-17 00:15:00,
2013-01-16 19:20:00,30.7,28.5,29.80,South,169,3.6,5.8,91,0.00,,,0.00,VWS V14.01,2013-01-17 00:20:00,
2013-01-16 19:25:00,30.7,28.5,29.80,South,172,4.9,5.8,91,0.00,,,0.00,VWS V14.01,2013-01-17 00:25:00,
2013-01-16 19:35:00,30.7,28.5,29.80,SE,133,3.6,5.4,91,0.00,,,0.00,VWS V14.01,2013-01-17 00:35:00,
2013-01-16 19:40:00,30.7,28.5,29.80,SSE,155,5.8,6.3,91,0.00,,,0.00,VWS V14.01,2013-01-17 00:40:00,
2013-01-16 19:50:00,30.7,28.5,29.80,SE,137,5.8,8.1,91,0.00,,,0.00,VWS V14.01,2013-01-17 00:50:00,
2013-01-16 20:00:00,30.7,28.5,29.80,South,172,4.9,8.1,91,0.00,,,0.00,VWS V14.01,2013-01-17 01:00:00,
2013-01-16 20:10:00,30.2,28.5,29.80,South,182,5.4,8.7,93,0.00,,,0.00,VWS V14.01,2013-01-17 01:10:00,
2013-01-16 20:15:00,30.4,28.7,29.80,South,172,6.3,8.7,93,0.00,,,0.00,VWS V14.01,2013-01-17 01:15:00,
2013-01-16 20:25:00,30.4,28.7,29.80,South,172,5.4,8.3,93,0.00,,,0.00,VWS V14.01,2013-01-17 01:25:00,
2013-01-16 20:35:00,30.4,28.7,29.80,SE,133,3.1,7.6,93,0.00,,,0.00,VWS V14.01,2013-01-17 01:35:00,
2013-01-16 20:45:00,30.4,28.7,29.80,South,191,5.8,10.1,93,0.00,,,0.00,VWS V14.01,2013-01-17 01:45:00,
2013-01-16 20:55:00,30.4,28.7,29.80,SSW,203,8.7,10.5,93,0.00,,,0.00,VWS V14.01,2013-01-17 01:55:00,
2013-01-16 21:00:00,30.4,28.7,29.80,SSW,201,6.3,10.5,93,0.00,,,0.00,VWS V14.01,2013-01-17 02:00:00,
2013-01-16 21:10:00,30.4,28.7,29.80,South,186,5.8,13.2,93,0.00,,,0.00,VWS V14.01,2013-01-17 02:10:00,
2013-01-16 21:20:00,31.5,29.5,29.80,SSW,206,10.5,10.5,92,0.00,,,0.00,VWS V14.01,2013-01-17 02:20:00,
2013-01-16 21:25:00,31.8,29.9,29.80,SSW,204,11.0,11.0,92,0.00,,,0.00,VWS V14.01,2013-01-17 02:25:00,
2013-01-16 21:35:00,31.8,29.9,29.80,SSW,206,10.1,12.8,92,0.00,,,0.00,VWS V14.01,2013-01-17 02:35:00,
2013-01-16 21:45:00,31.8,29.9,29.80,SSW,202,11.0,13.2,92,0.00,,,0.00,VWS V14.01,2013-01-17 02:45:00,
2013-01-16 21:55:00,31.8,29.9,29.80,SSW,204,11.9,13.2,92,0.00,,,0.00,VWS V14.01,2013-01-17 02:55:00,
2013-01-16 22:00:00,31.8,29.9,29.80,SSW,204,10.1,13.2,92,0.00,,,0.00,VWS V14.01,2013-01-17 03:00:00,
2013-01-16 22:10:00,31.8,29.9,29.80,SSW,207,11.0,13.2,92,0.00,,,0.00,VWS V14.01,2013-01-17 03:10:00,
2013-01-16 22:20:00,31.8,29.9,29.80,SSW,206,8.7,13.2,92,0.00,,,0.00,VWS V14.01,2013-01-17 03:20:00,
2013-01-16 22:30:00,31.8,29.9,29.80,SW,217,8.1,13.2,92,0.00,,,0.00,VWS V14.01,2013-01-17 03:30:00,
2013-01-16 22:35:00,31.8,29.9,29.80,SSW,200,11.0,13.6,92,0.00,,,0.00,VWS V14.01,2013-01-17 03:35:00,
2013-01-16 22:45:00,31.8,29.9,29.80,SW,216,8.7,13.6,92,0.00,,,0.00,VWS V14.01,2013-01-17 03:45:00,
2013-01-16 22:55:00,31.8,29.9,29.80,SSW,209,8.3,12.3,92,0.00,,,0.00,VWS V14.01,2013-01-17 03:55:00,
2013-01-16 23:05:00,31.8,29.9,29.80,SSW,210,8.7,13.6,92,0.00,,,0.00,VWS V14.01,2013-01-17 04:05:00,
2013-01-16 23:10:00,31.8,29.9,29.80,SW,216,7.6,13.6,92,0.00,,,0.00,VWS V14.01,2013-01-17 04:10:00,
2013-01-16 23:20:00,32.9,22.5,29.80,SSW,211,9.2,13.6,65,0.00,,,0.00,VWS V14.01,2013-01-17 04:20:00,
2013-01-16 23:30:00,33.1,22.7,29.80,SW,226,8.7,15.0,65,0.00,,,0.00,VWS V14.01,2013-01-17 04:30:00,
2013-01-16 23:40:00,33.1,22.7,29.83,SSW,202,10.5,17.4,65,0.00,,,0.00,VWS V14.01,2013-01-17 04:40:00,
2013-01-16 23:45:00,33.8,22.7,29.83,SW,218,10.1,17.4,63,0.00,,,0.00,VWS V14.01,2013-01-17 04:45:00,
2013-01-16 23:55:00,33.8,22.7,29.83,SSW,205,10.5,15.4,63,0.00,,,0.00,VWS V14.01,2013-01-17 04:55:00,